Погода в Зилаире

Россия / Республика Башкортостан     52°14′00″N   57°26′32″E
темп.,
°C
ветер,
м/с
пор.,
м/с
влажн.,
%
обл.,
%
осадки,
мм/ч
давл.,
гПа
погр.,
м
21 апреля, ср
ср2123:00−2в11600 0.0 103410
02:00−3в11610 0.0 103410
05:00−3вюв11600 0.0 103410
08:00+1вюв24442 0.0 1034232
11:00+6юв453284 0.0 1033784
14:00+9ююв443331 0.0 10331074
17:00+9юв463664 0.0 10321006
20:00+4ююв225685 0.0 103334
22 апреля, чт
чт2223:00+2вюв2963100 0.0 1034162
02:00+1юв2565100 0.0 1034100
05:00+1юв2464100 0.0 103591
08:00+3юв31058100 0.0 1034479
11:00+6ююв4849100 0.1 1034677
14:00+6юв5851100 0.3 1034703
17:00+7ююв4952100 0.3 1033900
20:00+5юв4964100 0.0 1033537
23 апреля, пт
пт2323:00+5вюв2974100 0.0 1033333
02:00+5ююв31072100 0.0 1032498
05:00+3в2391100 0.1 1032105
08:00+6вюв4107398 0.0 1031448
11:00+10ююв5853100 0.0 1029934
14:00+12ююв5743100 0.0 10281612
17:00+11ю4651100 0.0 10271725
20:00+6юв41088100 0.5 1028987
24 апреля, сб
сб2423:00+6юв41085100 0.8 1027959
02:00+5в61480100 0.4 1023651
05:00+5вюв61273100 0.5 10211021
08:00+6вюв61368100 1.3 1019961
11:00+6вюв61381100 1.8 1017805
14:00+5юв61290100 0.8 10161120
17:00+7вюв51278100 1.1 10131108
20:00+6ю3897100 1.4 1013486
25 апреля, вс
вс2523:00+5зюз5996100 2.1 1014996
02:00+4з51097100 0.2 1015853
05:00+4з41189100 0.2 10171036
08:00+5зюз388997 0.0 1019392
11:00+9ююз5107475 0.0 1018736
14:00+10ююз51080100 0.7 10181005
17:00+12зюз6117476 1.6 10181435
20:00+9зюз278598 0.3 1019170